Location: *
(51.1248°S, 108.4023°W)
Time: 21:37:27
(UTC+00:00)

Cosmos 2278 Rocket - Pass Details

Date: 28 October 2021
Orbit: 841 x 845 km, 71.0° (Epoch: 30 November)

Event Time Altitude Azimuth Distance (km) Brightness Sun altitude
Rises 08:57:23 0° 258° (WSW) 3,424 5.2 -20.5°
Reaches altitude 10° 09:01:15 10° 232° (SW) 2,494 4.7 -20.2°
Maximum altitude 09:04:04 14° 202° (SSW) 2,242 4.8 -20.0°
Drops below altitude 10° 09:06:54 10° 172° (S) 2,500 5.6 -19.7°
Sets 09:10:48 0° 146° (SSE) 3,439 7.0 -19.4°
